Weather History for Howell, MI

Change the Weather History Date:

Tuesday, August 14, 2012

  Actual Average Record
Temperature  
Mean Temperature 68 °F -  
Max Temperature 76 °F 78 °F 89 °F (2003)
Min Temperature 61 °F 58 °F 46 °F (2013)
Cooling Degree Days 4    
Growing Degree Days 18 (Base 50)    
Moisture  
Dew Point 57 °F    
Average Humidity 72    
Maximum Humidity 91    
Minimum Humidity 43    
Precipitation  
Precipitation 0.00 in - - ()
Sea Level Pressure  
Sea Level Pressure 29.93 in    
Wind  
Wind Speed 1 mph (NNW)    
Max Wind Speed 8 mph    
Max Gust Speed -    
Visibility 8 miles    
Events Rain    
Averages and records for this station are not official NWS values.
T = Trace of Precipitation, MM = Missing Value Source: NWS Daily Summary

Daily Weather History Graph

Daily Weather History Graph

Search for Another Location

Airport:

Trip Planner

Search our weather history database for the weather conditions in past years. The results will help you decide how hot, cold, wet, or windy it might be!

Date:

Astronomy

Aug. 14, 2012 Rise Set
Actual Time 6:42 AM EDT 8:38 PM EDT
Civil Twilight 6:11 AM EDT 9:08 PM EDT
Nautical Twilight 5:34 AM EDT 9:45 PM EDT
Astronomical Twilight 4:53 AM EDT 10:26 PM EDT
Moon 3:36 AM EDT (8/14) 6:33 PM EDT (8/14)
Length of Visible Light 14h 57m
Length of Day
13h 56m
Waning Crescent, 10% of the Moon is Illuminated
Aug 14
Waning Crescent
Aug 17
New
Aug 24
First Quarter
Aug 31
Full
Sep 8
Last Quarter

Hourly Weather History & Observations

Time (EDT) Temp. Dew Point Humidity Pressure Visibility Wind Dir Wind Speed Gust Speed Precip Events Conditions
12:15 AM 65.1 °F 61.7 °F 89% 29.97 in 5.0 mi Calm Calm - N/A Rain Light Rain
12:54 AM 64.4 °F 61.2 °F 89% 29.96 in 5.0 mi Calm Calm - N/A Rain Light Rain
1:15 AM 63.9 °F 61.0 °F 90% 29.96 in 4.0 mi Calm Calm - N/A Rain Light Rain
1:35 AM 64.2 °F 61.2 °F 90% 29.96 in 4.0 mi Calm Calm - N/A Rain Rain
1:55 AM 63.1 °F 59.9 °F 89% 29.95 in 5.0 mi Calm Calm - N/A Rain Rain
2:15 AM 62.8 °F 59.5 °F 89% 29.95 in 7.0 mi Calm Calm - N/A Rain Light Rain
2:34 AM 62.8 °F 59.7 °F 90% 29.94 in 7.0 mi Calm Calm - N/A Rain Light Rain
2:55 AM 62.6 °F 59.5 °F 90% 29.93 in 7.0 mi North 3.5 mph - N/A   Light Drizzle
3:15 AM 62.6 °F 59.4 °F 89% 29.93 in 10.0 mi Calm Calm - N/A   Overcast
3:34 AM 62.6 °F 59.5 °F 90% 29.93 in 10.0 mi Calm Calm - N/A Rain Light Rain
3:55 AM 62.2 °F 59.0 °F 89% 29.93 in 10.0 mi Calm Calm - N/A   Light Drizzle
4:15 AM 62.2 °F 59.2 °F 90% 29.92 in 7.0 mi Calm Calm - N/A Rain Rain
4:34 AM 62.2 °F 59.2 °F 90% 29.93 in 10.0 mi Calm Calm - N/A Rain Light Rain
4:55 AM 62.2 °F 59.2 °F 90% 29.92 in 7.0 mi Calm Calm - N/A   Overcast
5:15 AM 62.2 °F 59.4 °F 90% 29.92 in 4.0 mi NNE 3.5 mph - N/A Rain Rain
5:34 AM 62.2 °F 59.5 °F 91% 29.92 in 3.0 mi Calm Calm - N/A   Overcast
5:55 AM 62.1 °F 59.4 °F 91% 29.92 in 4.0 mi Calm Calm - N/A   Overcast
6:15 AM 61.9 °F 59.4 °F 91% 29.92 in 4.0 mi Calm Calm - N/A   Overcast
6:35 AM 61.9 °F 59.4 °F 91% 29.93 in 4.0 mi North 3.5 mph - N/A Rain Light Rain
6:55 AM 61.9 °F 59.4 °F 91% 29.93 in 4.0 mi Calm Calm - N/A   Drizzle
7:14 AM 61.9 °F 59.4 °F 91% 29.93 in 4.0 mi Calm Calm - N/A Rain Light Rain
7:35 AM 61.9 °F 59.4 °F 91% 29.93 in 4.0 mi Calm Calm - N/A   Overcast
7:55 AM 62.2 °F 59.7 °F 91% 29.94 in 5.0 mi Calm Calm - N/A   Overcast
8:14 AM 62.4 °F 59.9 °F 91% 29.94 in 5.0 mi North 3.5 mph - N/A   Overcast
8:35 AM 62.2 °F 59.5 °F 91% 29.95 in 5.0 mi Calm Calm - N/A   Overcast
8:55 AM 62.6 °F 59.9 °F 91% 29.95 in 2.5 mi Calm Calm - N/A   Light Drizzle
9:14 AM 62.4 °F 59.7 °F 91% 29.95 in 4.0 mi NNW 3.5 mph - N/A   Overcast
9:35 AM 63.1 °F 60.4 °F 91% 29.95 in 7.0 mi Calm Calm - N/A   Overcast
9:55 AM 63.7 °F 60.4 °F 89% 29.94 in 10.0 mi Calm Calm - N/A   Overcast
10:14 AM 64.4 °F 60.4 °F 87% 29.94 in 10.0 mi NNE 3.5 mph - N/A   Mostly Cloudy
10:35 AM 64.4 °F 59.9 °F 85% 29.93 in 10.0 mi NNE 3.5 mph - N/A   Mostly Cloudy
10:55 AM 66.9 °F 60.4 °F 80% 29.93 in 10.0 mi NNW 4.6 mph - N/A   Mostly Cloudy
11:15 AM 67.6 °F 59.0 °F 74% 29.93 in 10.0 mi North 3.5 mph - N/A   Mostly Cloudy
11:35 AM 68.5 °F 57.7 °F 68% 29.93 in 10.0 mi NE 4.6 mph - N/A   Mostly Cloudy
11:54 AM 69.3 °F 57.0 °F 65% 29.94 in 10.0 mi NNW 5.8 mph - N/A   Mostly Cloudy
12:15 PM 69.8 °F 56.5 °F 63% 29.94 in 10.0 mi North 4.6 mph - N/A   Mostly Cloudy
12:35 PM 69.1 °F 55.4 °F 62% 29.94 in 10.0 mi NNE 3.5 mph - N/A   Mostly Cloudy
12:54 PM 70.7 °F 55.0 °F 58% 29.94 in 10.0 mi North 3.5 mph - N/A   Mostly Cloudy
1:15 PM 71.6 °F 53.4 °F 53% 29.93 in 10.0 mi North 3.5 mph - N/A   Scattered Clouds
1:35 PM 72.1 °F 54.5 °F 54% 29.93 in 10.0 mi NNW 3.5 mph - N/A   Scattered Clouds
1:54 PM 73.2 °F 52.3 °F 48% 29.93 in 10.0 mi Calm Calm - N/A   Scattered Clouds
2:15 PM 73.6 °F 53.4 °F 49% 29.93 in 10.0 mi NE 3.5 mph - N/A   Scattered Clouds
2:35 PM 75.2 °F 53.8 °F 47% 29.92 in 10.0 mi NW 8.1 mph - N/A   Mostly Cloudy
2:54 PM 74.1 °F 54.3 °F 50% 29.93 in 10.0 mi North 4.6 mph - N/A   Overcast
3:15 PM 75.4 °F 51.8 °F 44% 29.92 in 10.0 mi WNW 5.8 mph - N/A   Scattered Clouds
3:35 PM 75.6 °F 51.4 °F 43% 29.91 in 10.0 mi NW 3.5 mph - N/A   Clear
3:55 PM 75.7 °F 52.5 °F 44% 29.92 in 10.0 mi North 4.6 mph - N/A   Scattered Clouds
4:15 PM 75.9 °F 52.2 °F 43% 29.91 in 10.0 mi NW 4.6 mph - N/A   Scattered Clouds
4:34 PM 76.1 °F 52.0 °F 43% 29.91 in 10.0 mi WNW 6.9 mph - N/A   Scattered Clouds
4:55 PM 76.1 °F 53.1 °F 45% 29.90 in 10.0 mi NNW 5.8 mph - N/A   Scattered Clouds
5:14 PM 75.7 °F 52.0 °F 43% 29.89 in 10.0 mi North 5.8 mph - N/A   Clear
5:35 PM 75.2 °F 52.5 °F 45% 29.89 in 10.0 mi NW 4.6 mph - N/A   Clear
5:55 PM 75.6 °F 52.7 °F 45% 29.90 in 10.0 mi WNW 4.6 mph - N/A   Scattered Clouds
6:15 PM 74.8 °F 53.1 °F 47% 29.91 in 10.0 mi WNW 4.6 mph - N/A   Scattered Clouds
6:35 PM 74.5 °F 55.2 °F 51% 29.91 in 10.0 mi Calm Calm - N/A   Clear
6:54 PM 75.7 °F 53.1 °F 45% 29.91 in 10.0 mi NW 3.5 mph - N/A   Clear
7:15 PM 74.8 °F 51.1 °F 43% 29.91 in 10.0 mi NW 4.6 mph - N/A   Clear
7:35 PM 74.3 °F 53.1 °F 47% 29.91 in 10.0 mi NW 3.5 mph - N/A   Clear
7:54 PM 73.0 °F 55.4 °F 54% 29.91 in 10.0 mi Calm Calm - N/A   Clear
8:15 PM 70.9 °F 56.5 °F 60% 29.91 in 10.0 mi Calm Calm - N/A   Clear
8:35 PM 69.8 °F 57.2 °F 64% 29.91 in 10.0 mi Calm Calm - N/A   Clear
8:54 PM 68.0 °F 57.0 °F 68% 29.91 in 10.0 mi Calm Calm - N/A   Clear
9:15 PM 67.1 °F 56.5 °F 69% 29.92 in 10.0 mi Calm Calm - N/A   Clear
9:34 PM 66.6 °F 57.0 °F 71% 29.92 in 10.0 mi Calm Calm - N/A   Clear
9:55 PM 66.6 °F 56.7 °F 70% 29.93 in 10.0 mi Calm Calm - N/A   Clear
10:14 PM 64.4 °F 57.4 °F 78% 29.93 in 10.0 mi Calm Calm - N/A   Clear
10:35 PM 63.9 °F 57.0 °F 78% 29.94 in 10.0 mi Calm Calm - N/A   Clear
10:55 PM 64.4 °F 57.2 °F 77% 29.94 in 10.0 mi Calm Calm - N/A   Scattered Clouds
11:14 PM 64.4 °F 57.2 °F 77% 29.94 in 10.0 mi Calm Calm - N/A   Mostly Cloudy
11:35 PM 63.5 °F 57.2 °F 80% 29.93 in 10.0 mi Calm Calm - N/A   Scattered Clouds
11:55 PM 62.8 °F 56.7 °F 80% 29.93 in 10.0 mi Calm Calm - N/A   Clear